Hourly Data Report for October 15, 2014

All times are specified in Local Standard Time (LST). Add 1 hour to adjust for Daylight Saving Time where and when it is observed.

QIKIQTARJUAQ A
NUNAVUT

67°32'48.000" N
64°01'54.000" W
5.50 m
2400577
YVM

Download Data

Hourly Data (October 2014)
Hourly Data Report for October 15, 2014
Temp Definition
°C
Dew Point Temp Definition
°C
Rel Hum Definition
%
Wind Dir Definition
10's deg

Wind Spd Definition
km/h
Visibility Definition
km
Stn Press Definition
kPa
Hmdx Definition


Wind Chill Definition


Weather Definition


TIME
00:00 Legend Double Dagger 0.2 -1.0 92 8 13 16.1 100.27     Snow
01:00 Legend Double Dagger 0.5 -1.0 90 8 13 16.1 100.22     Rain
02:00 Legend Double Dagger 0.1 -1.2 91 7 9 16.1 100.18     Rain
03:00 Legend Double Dagger 0.6 -0.9 90 7 9 16.1 100.15     LegendNANA
04:00 Legend Double Dagger 0.7 -0.9 89 8 8 16.1 100.11     Rain
05:00 Legend Double Dagger 0.7 -0.8 90 1 8 12.9 100.08     Rain
06:00 Legend Double Dagger 0.4 -1.1 90 8 5 16.1 100.05     LegendNANA
07:00 Legend Double Dagger 0.1 -1.4 90 21 8 16.1 100.05     LegendNANA
08:00 Legend Double Dagger -0.4 -2.4 86 21 5 16.1 100.05   -2 LegendNANA
09:00 Legend Double Dagger -0.1 -1.7 89 21 21 16.1 100.05   -6 LegendNANA
10:00 Legend Double Dagger -0.2 -2.4 85 20 21 16.1 100.02   -6 LegendNANA
11:00 Legend Double Dagger -0.5 -3.2 82 20 18 16.1 100.03   -6 LegendNANA
12:00 Legend Double Dagger -0.8 -3.5 82 20 17 16.1 100.04   -6 LegendNANA
13:00 Legend Double Dagger -2.3 -4.6 84 11 5 16.1 100.08   -4 LegendNANA
14:00 Legend Double Dagger -1.8 -4.5 82 19 9 16.1 100.12   -5 LegendNANA
15:00 Legend Double Dagger -2.5 -5.0 83 LegendMM 4 16.1 100.14   -4 LegendNANA
16:00 Legend Double Dagger -2.0 -5.2 79 LegendMM 17 16.1 100.16   -7 LegendNANA
17:00 Legend Double Dagger -1.7 -5.3 77 21 17 16.1 100.17   -7 LegendNANA
18:00 Legend Double Dagger -3.1 -5.6 83   0 16.1 100.21     LegendNANA
19:00 Legend Double Dagger -3.1 -6.2 79 12 5 16.1 100.23   -5 LegendNANA
20:00 Legend Double Dagger -3.7 -6.2 83 17 4 16.1 100.24   -5 LegendNANA
21:00 Legend Double Dagger -3.0 -5.7 82   0 16.1 100.26     LegendNANA
22:00 Legend Double Dagger -2.1 -4.3 85   0 16.1 100.29     LegendNANA
23:00 Legend Double Dagger -1.3 -4.3 80   0 16.1 100.31     LegendNANA

Notes on Data Quality.

Legend

  • E = Estimated
  • M = Missing
  • NA = Not Available
  • ‡ = Partner data that is not subject to review by the National Climate Archives
Date modified: